Time,TemperatureF,DewpointF,PressureIn,WindDirection,WindDirectionDegrees,WindSpeedMPH,WindSpeedGustMPH,Humidity,HourlyPrecipIn,Conditions,Clouds,dailyrainin,SoftwareType,DateUTC
2013-09-04 00:03:00,69.8,69.0,29.97,ESE,121,0.0,0.0,97,0.00,,,0.00,weatherlink.com 1.10,2013-09-04 05:03:00,
2013-09-04 00:18:00,70.0,69.0,29.97,ESE,113,0.0,0.0,97,0.00,,,0.00,weatherlink.com 1.10,2013-09-04 05:18:00,
2013-09-04 00:33:00,69.9,69.0,29.97,ESE,111,0.0,0.0,97,0.00,,,0.00,weatherlink.com 1.10,2013-09-04 05:33:00,
2013-09-04 00:48:00,69.8,69.0,29.96,ESE,111,0.0,0.0,97,0.00,,,0.00,weatherlink.com 1.10,2013-09-04 05:48:00,
2013-09-04 01:03:00,69.6,69.0,29.95,ESE,111,0.0,0.0,97,0.00,,,0.00,weatherlink.com 1.10,2013-09-04 06:03:00,
2013-09-04 01:18:00,69.4,69.0,29.95,ESE,111,0.0,0.0,97,0.00,,,0.00,weatherlink.com 1.10,2013-09-04 06:18:00,
2013-09-04 01:33:00,69.2,68.0,29.95,ESE,111,0.0,0.0,97,0.00,,,0.00,weatherlink.com 1.10,2013-09-04 06:33:00,
2013-09-04 01:48:00,69.2,69.0,29.95,ESE,111,0.0,0.0,98,0.00,,,0.00,weatherlink.com 1.10,2013-09-04 06:48:00,
2013-09-04 02:03:00,69.0,69.0,29.95,ESE,111,0.0,0.0,98,0.00,,,0.00,weatherlink.com 1.10,2013-09-04 07:03:00,
2013-09-04 02:18:00,69.2,69.0,29.95,ESE,111,0.0,0.0,98,0.00,,,0.00,weatherlink.com 1.10,2013-09-04 07:18:00,
2013-09-04 02:33:00,69.3,69.0,29.95,ESE,112,0.0,0.0,98,0.00,,,0.00,weatherlink.com 1.10,2013-09-04 07:33:00,
2013-09-04 02:48:00,69.1,69.0,29.95,ESE,111,0.0,0.0,98,0.00,,,0.00,weatherlink.com 1.10,2013-09-04 07:48:00,
2013-09-04 03:03:00,68.9,68.0,29.95,East,95,0.0,0.0,98,0.00,,,0.00,weatherlink.com 1.10,2013-09-04 08:03:00,
2013-09-04 03:18:00,68.7,68.0,29.95,East,94,0.0,0.0,98,0.00,,,0.00,weatherlink.com 1.10,2013-09-04 08:18:00,
2013-09-04 03:33:00,68.6,68.0,29.95,SE,140,0.0,0.0,98,0.00,,,0.00,weatherlink.com 1.10,2013-09-04 08:33:00,
2013-09-04 03:48:00,68.5,68.0,29.95,SSE,153,0.0,0.0,98,0.00,,,0.00,weatherlink.com 1.10,2013-09-04 08:48:00,
2013-09-04 04:03:00,68.5,68.0,29.95,SSE,153,0.0,0.0,98,0.00,,,0.00,weatherlink.com 1.10,2013-09-04 09:03:00,
2013-09-04 04:19:00,68.5,68.0,29.95,SSE,153,0.0,0.0,98,0.00,,,0.00,weatherlink.com 1.10,2013-09-04 09:19:00,
2013-09-04 04:34:00,68.1,68.0,29.95,SSE,153,0.0,0.0,98,0.00,,,0.00,weatherlink.com 1.10,2013-09-04 09:34:00,
2013-09-04 04:49:00,68.1,68.0,29.95,SSE,153,0.0,0.0,98,0.01,,,0.01,weatherlink.com 1.10,2013-09-04 09:49:00,
2013-09-04 05:04:00,68.1,68.0,29.96,SSE,153,0.0,0.0,98,0.01,,,0.01,weatherlink.com 1.10,2013-09-04 10:04:00,
2013-09-04 05:19:00,67.9,67.0,29.96,SSE,154,0.0,0.0,98,0.01,,,0.01,weatherlink.com 1.10,2013-09-04 10:19:00,
2013-09-04 05:34:00,67.9,67.0,29.96,SSE,153,0.0,0.0,98,0.01,,,0.01,weatherlink.com 1.10,2013-09-04 10:34:00,
2013-09-04 05:49:00,67.9,67.0,29.97,SSE,153,0.0,0.0,98,0.00,,,0.01,weatherlink.com 1.10,2013-09-04 10:49:00,
2013-09-04 06:04:00,68.0,68.0,29.97,SSE,153,0.0,0.0,98,0.00,,,0.01,weatherlink.com 1.10,2013-09-04 11:04:00,
2013-09-04 06:19:00,68.4,68.0,29.98,ESE,117,0.0,0.0,98,0.00,,,0.01,weatherlink.com 1.10,2013-09-04 11:19:00,
2013-09-04 06:34:00,68.2,68.0,29.99,ESE,117,0.0,0.0,98,0.00,,,0.01,weatherlink.com 1.10,2013-09-04 11:34:00,
2013-09-04 06:49:00,68.3,68.0,30.00,ESE,117,0.0,0.0,98,0.00,,,0.01,weatherlink.com 1.10,2013-09-04 11:49:00,
2013-09-04 07:04:00,68.7,68.0,30.00,ESE,117,0.0,0.0,98,0.00,,,0.01,weatherlink.com 1.10,2013-09-04 12:04:00,
2013-09-04 07:19:00,69.3,69.0,30.01,ESE,117,0.0,0.0,98,0.00,,,0.01,weatherlink.com 1.10,2013-09-04 12:19:00,
2013-09-04 07:34:00,70.2,70.0,30.01,ESE,117,0.0,0.0,98,0.00,,,0.01,weatherlink.com 1.10,2013-09-04 12:34:00,
2013-09-04 07:49:00,71.5,71.0,30.01,SE,146,0.0,0.0,98,0.00,,,0.01,weatherlink.com 1.10,2013-09-04 12:49:00,
2013-09-04 08:04:00,72.6,72.0,30.02,SE,142,0.0,1.0,98,0.00,,,0.01,weatherlink.com 1.10,2013-09-04 13:04:00,
2013-09-04 08:19:00,73.2,73.0,30.02,SSW,205,0.0,0.0,98,0.00,,,0.01,weatherlink.com 1.10,2013-09-04 13:19:00,
2013-09-04 08:34:00,73.5,73.0,30.03,East,101,0.0,2.0,98,0.00,,,0.01,weatherlink.com 1.10,2013-09-04 13:34:00,
2013-09-04 08:49:00,74.0,73.0,30.04,East,101,1.0,2.0,98,0.00,,,0.01,weatherlink.com 1.10,2013-09-04 13:49:00,
2013-09-04 09:04:00,74.5,74.0,30.04,SSE,149,0.0,2.0,98,0.00,,,0.01,weatherlink.com 1.10,2013-09-04 14:04:00,
2013-09-04 09:19:00,76.4,76.0,30.04,East,86,0.0,1.0,98,0.00,,,0.01,weatherlink.com 1.10,2013-09-04 14:19:00,
2013-09-04 09:34:00,79.4,77.0,30.05,South,187,0.0,1.0,92,0.00,,,0.01,weatherlink.com 1.10,2013-09-04 14:34:00,
2013-09-04 09:49:00,81.6,77.0,30.05,WSW,252,0.0,2.0,85,0.00,,,0.01,weatherlink.com 1.10,2013-09-04 14:49:00,
2013-09-04 10:04:00,82.7,76.0,30.05,WSW,242,0.0,4.0,80,0.00,,,0.01,weatherlink.com 1.10,2013-09-04 15:04:00,
2013-09-04 10:19:00,84.3,78.0,30.05,SSW,210,0.0,3.0,80,0.00,,,0.01,weatherlink.com 1.10,2013-09-04 15:19:00,
2013-09-04 10:34:00,84.7,77.0,30.05,SSW,207,3.0,3.0,78,0.00,,,0.01,weatherlink.com 1.10,2013-09-04 15:34:00,
2013-09-04 10:49:00,85.8,77.0,30.05,SE,136,0.0,3.0,74,0.00,,,0.01,weatherlink.com 1.10,2013-09-04 15:49:00,
2013-09-04 11:04:00,86.2,77.0,30.05,NE,34,0.0,4.0,75,0.00,,,0.01,weatherlink.com 1.10,2013-09-04 16:04:00,
2013-09-04 11:20:00,87.8,78.0,30.04,SSE,152,2.0,3.0,73,0.00,,,0.01,weatherlink.com 1.10,2013-09-04 16:20:00,
2013-09-04 11:35:00,87.4,77.0,30.04,SW,218,4.0,5.0,72,0.00,,,0.01,weatherlink.com 1.10,2013-09-04 16:35:00,
2013-09-04 11:50:00,88.7,78.0,30.04,ENE,77,2.0,2.0,70,0.00,,,0.01,weatherlink.com 1.10,2013-09-04 16:50:00,
2013-09-04 12:05:00,88.0,78.0,30.04,WSW,255,0.0,3.0,71,0.00,,,0.01,weatherlink.com 1.10,2013-09-04 17:05:00,
2013-09-04 12:20:00,88.7,78.0,30.03,SSE,154,2.0,4.0,71,0.00,,,0.01,weatherlink.com 1.10,2013-09-04 17:20:00,
2013-09-04 12:35:00,89.7,77.0,30.03,SW,236,0.0,2.0,67,0.00,,,0.01,weatherlink.com 1.10,2013-09-04 17:35:00,
2013-09-04 12:50:00,89.2,79.0,30.02,ENE,58,1.0,2.0,72,0.00,,,0.01,weatherlink.com 1.10,2013-09-04 17:50:00,
2013-09-04 13:05:00,90.8,78.0,30.02,SSW,204,0.0,4.0,66,0.00,,,0.01,weatherlink.com 1.10,2013-09-04 18:05:00,
2013-09-04 13:20:00,91.5,78.0,30.02,SSW,193,0.0,6.0,65,0.00,,,0.01,weatherlink.com 1.10,2013-09-04 18:20:00,
2013-09-04 13:35:00,92.4,78.0,30.02,SW,224,1.0,2.0,62,0.00,,,0.01,weatherlink.com 1.10,2013-09-04 18:35:00,
2013-09-04 13:50:00,91.6,77.0,30.02,West,276,1.0,4.0,62,0.00,,,0.01,weatherlink.com 1.10,2013-09-04 18:50:00,
2013-09-04 14:05:00,89.7,78.0,30.01,SW,236,0.0,0.0,69,0.00,,,0.01,weatherlink.com 1.10,2013-09-04 19:05:00,
2013-09-04 14:20:00,90.0,78.0,30.01,NE,41,0.0,2.0,67,0.00,,,0.01,weatherlink.com 1.10,2013-09-04 19:20:00,
2013-09-04 14:35:00,91.3,78.0,30.00,WSW,245,1.0,2.0,66,0.00,,,0.01,weatherlink.com 1.10,2013-09-04 19:35:00,
2013-09-04 14:50:00,91.9,77.0,29.99,East,83,0.0,2.0,62,0.00,,,0.01,weatherlink.com 1.10,2013-09-04 19:50:00,
2013-09-04 15:05:00,92.3,76.0,29.99,WSW,248,0.0,3.0,59,0.00,,,0.01,weatherlink.com 1.10,2013-09-04 20:05:00,
2013-09-04 15:20:00,92.8,75.0,29.98,ENE,66,0.0,4.0,56,0.00,,,0.01,weatherlink.com 1.10,2013-09-04 20:20:00,
2013-09-04 15:35:00,92.4,76.0,29.98,ESE,114,0.0,4.0,59,0.00,,,0.01,weatherlink.com 1.10,2013-09-04 20:35:00,
2013-09-04 15:50:00,93.0,75.0,29.97,WSW,238,0.0,3.0,56,0.00,,,0.01,weatherlink.com 1.10,2013-09-04 20:50:00,
2013-09-04 16:05:00,92.7,75.0,29.97,SW,217,0.0,4.0,56,0.00,,,0.01,weatherlink.com 1.10,2013-09-04 21:05:00,
2013-09-04 16:20:00,92.3,76.0,29.96,SSW,193,2.0,3.0,60,0.00,,,0.01,weatherlink.com 1.10,2013-09-04 21:20:00,
2013-09-04 16:35:00,92.0,76.0,29.96,SW,221,0.0,3.0,60,0.00,,,0.01,weatherlink.com 1.10,2013-09-04 21:35:00,
2013-09-04 16:50:00,93.6,76.0,29.96,WSW,252,0.0,1.0,56,0.00,,,0.01,weatherlink.com 1.10,2013-09-04 21:50:00,
2013-09-04 17:05:00,92.8,77.0,29.96,SE,144,0.0,2.0,60,0.00,,,0.01,weatherlink.com 1.10,2013-09-04 22:05:00,
2013-09-04 17:20:00,92.1,76.0,29.97,SW,221,0.0,3.0,60,0.00,,,0.01,weatherlink.com 1.10,2013-09-04 22:20:00,
2013-09-04 17:35:00,91.8,78.0,29.97,SSE,159,0.0,1.0,64,0.00,,,0.01,weatherlink.com 1.10,2013-09-04 22:35:00,
2013-09-04 17:50:00,88.5,80.0,29.98,South,173,0.0,0.0,75,0.00,,,0.01,weatherlink.com 1.10,2013-09-04 22:50:00,
2013-09-04 18:05:00,86.4,78.0,29.98,SSW,201,0.0,8.0,77,0.00,,,0.01,weatherlink.com 1.10,2013-09-04 23:05:00,
2013-09-04 18:20:00,84.8,78.0,29.99,SW,217,2.0,4.0,80,0.00,,,0.01,weatherlink.com 1.10,2013-09-04 23:20:00,
2013-09-04 18:35:00,83.6,78.0,29.99,SE,143,0.0,2.0,82,0.00,,,0.01,weatherlink.com 1.10,2013-09-04 23:35:00,
2013-09-04 18:50:00,82.8,77.0,29.99,East,81,0.0,5.0,83,0.00,,,0.01,weatherlink.com 1.10,2013-09-04 23:50:00,
2013-09-04 19:05:00,82.0,76.0,29.99,ESE,111,0.0,3.0,83,0.00,,,0.01,weatherlink.com 1.10,2013-09-05 00:05:00,
2013-09-04 19:20:00,81.2,76.0,30.00,ESE,114,0.0,3.0,83,0.00,,,0.01,weatherlink.com 1.10,2013-09-05 00:20:00,
2013-09-04 19:35:00,80.6,76.0,30.01,SSW,206,2.0,5.0,85,0.00,,,0.01,weatherlink.com 1.10,2013-09-05 00:35:00,
2013-09-04 19:50:00,79.9,76.0,30.03,SSW,211,0.0,1.0,87,0.00,,,0.01,weatherlink.com 1.10,2013-09-05 00:50:00,
2013-09-04 20:05:00,79.2,76.0,30.03,NNE,29,0.0,0.0,89,0.00,,,0.01,weatherlink.com 1.10,2013-09-05 01:05:00,
2013-09-04 20:20:00,78.7,76.0,30.03,East,101,0.0,1.0,90,0.00,,,0.01,weatherlink.com 1.10,2013-09-05 01:20:00,
2013-09-04 20:35:00,78.3,75.0,30.03,SE,143,0.0,0.0,90,0.00,,,0.01,weatherlink.com 1.10,2013-09-05 01:35:00,
2013-09-04 20:50:00,77.5,75.0,30.03,South,173,0.0,0.0,92,0.00,,,0.01,weatherlink.com 1.10,2013-09-05 01:50:00,
2013-09-04 21:05:00,77.2,75.0,30.04,SE,124,0.0,1.0,93,0.00,,,0.01,weatherlink.com 1.10,2013-09-05 02:05:00,
2013-09-04 21:20:00,76.9,75.0,30.05,East,91,0.0,1.0,93,0.00,,,0.01,weatherlink.com 1.10,2013-09-05 02:20:00,
2013-09-04 21:35:00,76.5,75.0,30.05,East,91,0.0,1.0,94,0.00,,,0.01,weatherlink.com 1.10,2013-09-05 02:35:00,
2013-09-04 21:50:00,76.2,74.0,30.05,SSE,154,0.0,0.0,94,0.00,,,0.01,weatherlink.com 1.10,2013-09-05 02:50:00,
2013-09-04 22:05:00,76.0,74.0,30.06,ESE,104,0.0,1.0,94,0.00,,,0.01,weatherlink.com 1.10,2013-09-05 03:05:00,
2013-09-04 22:20:00,75.8,74.0,30.05,ESE,104,0.0,0.0,95,0.00,,,0.01,weatherlink.com 1.10,2013-09-05 03:20:00,
2013-09-04 22:35:00,75.5,74.0,30.06,ESE,104,0.0,0.0,95,0.00,,,0.01,weatherlink.com 1.10,2013-09-05 03:35:00,
2013-09-04 22:50:00,75.7,74.0,30.06,SSE,156,0.0,1.0,95,0.00,,,0.01,weatherlink.com 1.10,2013-09-05 03:50:00,
2013-09-04 23:05:00,75.6,74.0,30.06,SSE,157,0.0,0.0,95,0.00,,,0.01,weatherlink.com 1.10,2013-09-05 04:05:00,
2013-09-04 23:20:00,75.7,74.0,30.06,ESE,105,0.0,0.0,95,0.00,,,0.01,weatherlink.com 1.10,2013-09-05 04:20:00,
2013-09-04 23:35:00,75.8,74.0,30.05,East,89,0.0,1.0,95,0.00,,,0.01,weatherlink.com 1.10,2013-09-05 04:35:00,
2013-09-04 23:50:00,75.5,74.0,30.05,ESE,108,0.0,0.0,95,0.00,,,0.01,weatherlink.com 1.10,2013-09-05 04:50:00,